星链-3085 (STARLINK-3085 )

导读 | 豆包AI

STARLINK-3085是美国太空探索技术公司星链星座的成员,于2021年9月14日发射入轨,隶属于星链互联网卫星星座组网任务。星链项目旨在构建全球卫星互联网星座,提供全天候、低延迟的全球宽带通信服务,该卫星承担着填补全球通信覆盖盲区,为偏远地区等提供网络接入的任务。

Basic Information
目录编号:
49156
目录名称:
STARLINK-3085
国际标识:
2021-082AC
轨道中心:
EARTH
卫星名称:
星链-3085
卫星全名:
星链-3085 (STARLINK-3085 )
卫星状态:
在轨 (已飞行1642 天)
发射日期:
2021-09-14 UTC
国别 :
美国 (US)
星等 :
--
Orbit Information
数据来源 国际轨道数据 AOE轨道数据
星历时间 2026-03-14T05:09:49+0800
22小时前
查看轨道信息
2026-03-11T16:00:00+0800
3天前
查看轨道信息
半长轴 6950.178km 6950.14km
偏心率 0.0002848 0.000141
轨道倾角 69.999° 70.000°
近地点辐角 267.732° 268.834°
升交点赤经 243.875° 250.302°
平近点角 92.351° 28.624°
近地点 570.061km 571.023km
远地点 574.021km 572.983km
周期 96.107分钟 96.106分钟
每日圈数 14.983351 14.983473
Detailed Information
固有亮度:
5
最大亮度:
2.5
卫星平台:
Starlink v1.5
覆盖范围:
全球
运营商:
太空探索技术公司
运营商所在国:
美国
制造商(研发单位):
太空探索技术公司
制造商所在国:
美国
使用方式:
暂无
Satellite Introduction
星链(Starlink)计划是由太空探索技术公司(SpaceX)提出的一个巨型低轨卫星互联网星座项目,计划在2019年至2024年间在太空搭建由约1.2万颗卫星组成的“星链”网络,其中1584颗将部署在地球上空550千米处的近地轨道,并从2020年开始工作。该卫星仍在工作。
2D Orbit Map
3D Orbit Map
Orbit Altitude Analysis Chart
Orbit Inclination Analysis Chart
Orbit Comprehensive Analysis Chart
View Comprehensive Chart